Torna al catalogo

ARIANE 3 DEB

LostHEO
NORAD 22101·DEBRIS·🇫🇷 France

Lanciato Jul 21, 1988 da Guiana Space Centre

Loading…

Prossimi Passaggi (prossime 24 ore)

TLE

ObsoletoSource: Space-Track

Epoca: Oct 26, 2025, 03:49 UTC

1 22101U 88063G   25299.15948447  .00014891  00000-0  64359-2 0  9992
2 22101   7.7994 309.0290 4163087 120.1726 287.4607  6.92627079322363

Traccia ARIANE 3 DEB in tempo reale con AllMySat

Download on the App Store